Zurück zum Katalog

ONEWEB-0458

AktivKommunikationPO
NORAD 51648·PAYLOAD·🇬🇧 United Kingdom

Gestartet Feb 10, 2022 von Guiana Space Centre

Loading…

Nächste Überflüge (nächste 24 Stunden)

TLE

AktuellSource: CelesTrak SupGP

Epoche: Sep 14, 2026, 09:09 UTC

1 51648C 22012AC  26257.38141618 -.00178540  00000+0 -50211+0 0  2576
2 51648  87.8903  18.4972 0002044 103.0107 334.9116 13.11907985    16

Verfolge ONEWEB-0458 in Echtzeit mit AllMySat

Download on the App Store